Location: Landers
(34.2911°N, 116.3835°W)
Time: 01:29:18
(UTC-08:00)

Envisat - Visible Passes

Search period start: 01 December 2020 00:00
Search period end: 11 December 2020 00:00
Orbit: 764 x 766 km, 98.1° (Epoch: 30 November)

Date Brightness Start Highest point End Pass type
(mag) Time Alt. Az. Time Alt. Az. Time Alt. Az.
01 Dec 2.9 05:44:05 10° N 05:49:11 80° WNW 05:54:14 10° SSW visible
01 Dec 3.1 16:54:44 10° SSE 16:59:48 89° WSW 17:04:54 10° NNW visible
02 Dec 4.3 05:07:32 10° NNE 05:12:21 42° E 05:17:08 10° S visible
02 Dec 5.8 17:58:34 10° SW 18:02:13 20° W 18:05:54 10° NW visible
03 Dec 5.8 04:31:57 10° NE 04:35:21 18° E 04:38:43 10° SE visible
03 Dec 4.2 17:20:22 10° S 17:25:14 47° W 17:30:08 10° NNW visible
04 Dec 3.1 05:32:42 10° NNE 05:37:48 80° ESE 05:42:52 10° S visible
04 Dec 6.5 18:27:24 10° W 18:27:52 10° W 18:28:21 10° W visible
05 Dec 4.8 04:56:22 10° NNE 05:00:55 33° E 05:05:26 10° SSE visible
05 Dec 5.4 17:46:35 10° SSW 17:50:46 26° W 17:54:58 10° NW visible
06 Dec 6.1 04:21:24 10° ENE 04:23:51 13° E 04:26:18 10° ESE visible
06 Dec 3.1 05:58:11 10° N 06:03:10 56° WNW 06:08:06 10° SSW visible
06 Dec 3.6 17:08:49 10° S 17:13:50 62° W 17:18:52 10° NNW visible
07 Dec 3.6 05:21:22 10° NNE 05:26:24 61° E 05:31:24 10° S visible
07 Dec 6.1 18:13:50 10° WSW 18:16:22 14° W 18:18:55 10° WNW visible
08 Dec 5.3 04:45:18 10° NE 04:49:28 25° E 04:53:36 10° SSE visible
08 Dec 4.9 17:34:46 10° SSW 17:39:19 33° W 17:43:53 10° NNW visible
09 Dec 2.9 05:46:44 10° N 05:51:48 73° WNW 05:56:51 10° SSW visible
09 Dec 3.2 16:57:22 10° S 17:02:26 81° WSW 17:07:32 10° NNW visible
10 Dec 4.1 05:10:06 10° NNE 05:15:00 46° E 05:19:51 10° S visible
10 Dec 5.9 18:01:27 10° SW 18:04:53 18° W 18:08:19 10° NW visible
